TimeAST,TemperatureF,Dew PointF,Humidity,Sea Level PressureIn,VisibilityMPH,Wind Direction,Wind SpeedMPH,Gust SpeedMPH,PrecipitationIn,Events,Conditions,WindDirDegrees,DateUTC
5:00 AM,80.6,73.4,79,29.86,-9999.0,North,-9999.0,-,N/A,,Unknown,0,2012-11-04 09:00:00
6:00 AM,82.4,75.2,79,29.89,-9999.0,ENE,4.6,-,N/A,,Unknown,70,2012-11-04 10:00:00
8:00 AM,86,76,66,,,ENE,4.6,,,,Clear,70,2012-11-04 12:00:00
8:00 AM,86.0,77.0,74,29.92,-9999.0,North,-9999.0,-,N/A,,Unknown,0,2012-11-04 12:00:00
9:00 AM,87.8,75.2,66,29.92,6.2,East,12.7,-,N/A,,Scattered Clouds,100,2012-11-04 13:00:00
10:00 AM,86.0,75.2,70,29.95,6.2,East,13.8,-,N/A,,Scattered Clouds,100,2012-11-04 14:00:00
11:00 AM,,82,,29.94,22,NNE,28.8,,,,Mostly Cloudy,30,2012-11-04 15:00:00
11:00 AM,86.0,75.2,70,29.92,6.2,East,15.0,-,N/A,,Mostly Cloudy,80,2012-11-04 15:00:00
12:00 PM,87.8,75.2,66,29.89,-9999.0,North,-9999.0,-,N/A,,Unknown,0,2012-11-04 16:00:00
1:00 PM,87.8,73.4,62,29.86,6.2,East,13.8,-,N/A,,Mostly Cloudy,100,2012-11-04 17:00:00
2:00 PM,86.0,75.2,70,29.86,-9999.0,North,-9999.0,-,N/A,,Unknown,0,2012-11-04 18:00:00
3:00 PM,87.8,75.2,66,29.83,-9999.0,North,-9999.0,-,N/A,,Unknown,0,2012-11-04 19:00:00
4:00 PM,86.0,75.2,70,29.83,6.2,East,12.7,-,N/A,,Scattered Clouds,100,2012-11-04 20:00:00
5:00 PM,87,76,63,29.82,22,East,16.1,,,,Partly Cloudy,100,2012-11-04 21:00:00
5:00 PM,86.0,75.2,70,29.83,-9999.0,North,-9999.0,-,N/A,,Unknown,0,2012-11-04 21:00:00
6:00 PM,84.2,75.2,74,29.83,6.2,East,13.8,-,N/A,,Partly Cloudy,100,2012-11-04 22:00:00
7:00 PM,82.4,75.2,79,29.83,6.2,East,10.4,-,N/A,,Partly Cloudy,90,2012-11-04 23:00:00
8:00 PM,83,75,70,29.89,19,East,11.5,,,,Partly Cloudy,90,2012-11-05 00:00:00
8:00 PM,82.4,75.2,79,29.86,6.2,East,11.5,-,N/A,,Partly Cloudy,90,2012-11-05 00:00:00
9:00 PM,84.2,75.2,74,29.89,-9999.0,North,-9999.0,-,N/A,,Unknown,0,2012-11-05 01:00:00
10:00 PM,82.4,75.2,79,29.89,-9999.0,North,-9999.0,-,N/A,,Unknown,0,2012-11-05 02:00:00
11:00 PM,83,75,70,,6,ENE,4.6,,,,Clear,70,2012-11-05 03:00:00
11:00 PM,82.4,75.2,79,29.89,-9999.0,North,-9999.0,-,N/A,,Unknown,0,2012-11-05 03:00:00